Location: Olda
(45.8833°N, 9.5500°E)
Time: 18:26:26
(UTC+00:00)

Cosmos 2263 Rocket - Pass Details

Date: 03 March 2021
Orbit: 825 x 847 km, 71.0° (Epoch: 15 April)

Event Time Altitude Azimuth Distance (km) Brightness Sun altitude
Rises 17:47:50 0° 329° (NNW) 3,372 5.8 -7.2°
Reaches altitude 10° 17:50:19 10° 325° (NW) 2,434 5.1 -7.6°
Maximum altitude 17:55:41 51° 251° (WSW) 1,030 3.2 -8.5°
Drops below altitude 10° 18:01:02 10° 176° (S) 2,422 4.6 -9.4°
Sets 18:03:31 0° 172° (S) 3,353 5.2 -9.9°
